THORAD DELTA 1 DEB, 8143

Orbit data source: Space-Track

THORAD DELTA 1 DEB, 8143 is space debris in SSO originally from a launch on Fri, 15 Nov 1974 UTC launched from the Air Force Western Test Range (AFWTR). Debris objects in space refer to the collection of defunct objects orbiting the Earth. Examples of debris include non-operational satellites, rocket bodies, and fragments generated from explosions, collisions, or faulty payload assembly.

Loading next visibility...
Identifier
8143, 1974-089M
Orbit
SSO
Country
Flag of USUS
Related business
Manufacturer
Unknown
Mission
Spacecraft
Bus & Motor
Unknown
Mass
Unknown
Launch date (UTC)
1974-11-15 (51 years ago)
Launch vehicle
Unknown
Launch site
Air Force Western Test Range (AFWTR)
Object type
Payload
Rocket body
Debris
Shape & HBR
Unknown shape, 0.4 m
Radar Cross Section
Small (<0.1 m²)

Expand to show TLE details & history
Last TLE update: 15 hours ago

TLE from 15 hours ago
0 THORAD DELTA 1 DEB
1  8143U 74089M   26061.56484015  .00000024  00000-0  36742-3 0  9993
2  8143 101.7649  50.1296 0193933  53.9954 307.8931 12.61367847359285
Epoch: 2026-03-02T13:33Z
TLE epoch observation values (Epoch: 2026-03-02T13:33:22.188Z)
Latitude
-0.00001°
Longitude
46.43072°
Altitude
1,328.883 km
Speed
7.235 km/s
True Right ascension
03h 20m 31s
True Declination
0° 00' 00"
Sunlit
Object was in daylight at epoch
Visualization orbit readout
Latitude
Unknown
Longitude
Unknown
Altitude
Unknown
Speed
Unknown
Apparent Right ascension
Unknown
Apparent Declination
Unknown
Sunlit
N/A
Visualization observer readout
Local Sidereal Time
08:14:37
Azimuth
Unknown
Elevation
Unknown
Doppler factor
Unknown
Orbital elements
Apogee altitude
1,565.967 km
Perigee altitude
1,263.704 km
Semi-major axis
7,792.972 km
Eccentricity
0.01939
Inclination
101.7649°
RAAN
50.1296°
Arg. of periapsis
53.9954°
True anomaly
306.11314°
Mean anomaly
307.8931°
Eccentric anomaly
307.00576°
Mean motion
3.15492 °/min
Orbital period
114.11 mins
BSTAR
0.00036742
Loading maneuver chart data...
Computing Atmospheric mass density...

Documentation

Showing up to 5 results
|